Notices

What's New in latest Release from April 7th, 2021:

- Updated Glossary, including Speed of Maximum Gust, and Total Hourly Precipitation

- Updated national and regional climate services offices contacts and prices information

- Addition of station inventory lists for 1981-2010, 1971-2000, and 1961-1990 Normals.

If you haven't already, please take our survey and provide feedback about our website: https://eccc.sondage-survey.ca/f/LanguageSelection.aspx?s=442ca660-fcf1-47c0-95a9-59707d6fd709

Hourly Data Report for June 14, 2020

TRENTON A
ONTARIO
Current Station Operator: DND

44°07'00.000" N
77°32'00.000" W
86.30 m
6158875
71621
YTR

Download Data

Hourly Data (June 2020)
Hourly Data Report for June 14, 2020
TIME
LST
Temp Definition
°C
Dew Point Definition
°C
Rel Hum Definition
%
Precip. Amount Definition
mm

Wind Dir Definition
10's deg

Wind Spd Definition
km/h
Visibility Definition
km
Stn Press Definition
kPa
Hmdx Definition


Wind Chill Definition


Weather Definition


00:00 6.2 5.4 95   3 4 24.1 101.89     Clear
01:00 5.5 4.7 95   35 4 24.1 101.91     Clear
02:00 5.6 4.7 94   35 4 24.1 101.93     Clear
03:00 4.9 3.6 91   36 4 24.1 101.95     Clear
04:00 4.8 4.0 95   6 5 24.1 102.01     Mainly Clear
05:00 5.6 4.3 91   2 4 24.1 102.05     Clear
06:00 8.9 5.4 79   4 4 24.1 102.11     Clear
07:00 12.4 6.1 65   4 8 24.1 102.13     Clear
08:00 14.6 5.6 55   5 8 24.1 102.16     Clear
09:00 16.3 3.3 42   8 5 24.1 102.16     Clear
10:00 17.4 1.9 35   10 8 24.1 102.14     Mainly Clear
11:00 17.6 0.6 32   9 8 24.1 102.10     Mainly Clear
12:00 18.3 0.9 31   7 11 24.1 102.03     Mainly Clear
13:00 19.7 2.7 32   12 8 24.1 102.00     Mainly Clear
14:00 18.1 1.9 34   20 18 24.1 101.99     Mainly Clear
15:00 18.3 2.7 35   25 17 24.1 101.95     Mainly Clear
16:00 18.4 2.5 35   24 17 24.1 101.95     Mainly Clear
17:00 18.8 2.7 34   24 11 24.1 101.95     Mainly Clear
18:00 18.9 2.8 34   22 9 24.1 101.95     Mainly Clear
19:00 17.6 2.8 37   21 9 24.1 101.97     Mainly Clear
20:00 15.5 2.8 42   28 5 24.1 101.96     Mainly Clear
21:00 13.0 2.4 49     0 24.1 101.99     Mainly Clear
22:00 10.5 2.7 58   3 4 24.1 102.02     Clear
23:00 9.1 2.4 63   5 8 24.1 102.01     Clear

Notes on Data Quality.

Legend

  • E = Estimated
  • M = Missing
  • NA = Not Available*
  • [empty] = Indicates an unobserved value
Date modified: